Regional Weather Roundup
Issued by NWS

Home | Current Version | Previous Version | Graphics & Text | Print | Product List | Glossary On
Versions: 1 2 3 4 5 6 7 8 9 10 11 12 13 14 15 16 17 18 19 20 21 22 23 24 25 26 27 28 29 30 31 32 33 34 35 36 37 38 39 40 41 42 43 44 45 46 47 48 49 50
000
ASUS43 KLOT 260409
RWRIL

ILLINOIS REGIONAL WEATHER ROUNDUP
NATIONAL WEATHER SERVICE CHICAGO/ROMEOVILLE IL
1100 PM CDT SUN SEP 25 2016

NOTE: "FAIR" INDICATES FEW OR NO CLOUDS BELOW 12,000 FEET WITH NO
SIGNIFICANT WEATHER AND/OR OBSTRUCTIONS TO VISIBILITY.

* THESE STATIONS ARE NOT UNDER NWS QUALITY CONTROL. THEY ALSO MAY NOT
  REPORT WEATHER SUCH AS PRECIPITATION OR FOG.

ILZ001-002-007-009-015-016-024-260500-
NORTHWEST ILLINOIS

CITY           SKY/WX    TMP DP  RH WIND       PRES   REMARKS
MOLINE         CLOUDY    64  50  60 W16       30.06R
STERLING*      CLOUDY    64  53  67 W15       30.02S
SAVANNA*       CLOUDY    64  52  65 W14G22    30.02S
$$

ILZ003-004-008-010-011-017-018-260500-
NORTH CENTRAL ILLINOIS

CITY           SKY/WX    TMP DP  RH WIND       PRES   REMARKS
ROCKFORD       LGT RAIN  63  55  75 W8        30.00S
FREEPORT*      CLOUDY    62  52  70 W13       30.01F
ROCHELLE*      CLOUDY    63  55  74 W10       30.00F
DE KALB*       CLOUDY    64  53  67 W8G17     29.99F
$$

ILZ005-006-012>014-019>023-260500-
NORTHEAST ILLINOIS

CITY           SKY/WX    TMP DP  RH WIND       PRES   REMARKS
CHICAGO-OHARE  CLOUDY    68  55  63 W14       29.95S
CHICAGO-MIDWAY CLOUDY    71  56  58 W16G22    29.94R
AURORA         CLOUDY    67  52  58 W15       29.98S
LANSING*       MOCLDY    71  62  74 W13G20    29.95R
JOLIET*        CLOUDY    69  56  63 W8        29.98S
WAUKEGAN       CLOUDY    65  54  67 W8G17     29.92S
DUPAGE AIRPORT CLOUDY    67  50  54 W17G26    29.97R
KANKAKEE*      MOCLDY    70  61  73 W10G17    29.98R
WHEELING       CLOUDY    67  53  61 W13       29.95S
MORRIS*        CLOUDY    68  55  63 NW12G21   29.98S
ROMEOVILLE*    CLOUDY    67  59  74 NW7       29.97F
NORTHERLY ISL    N/A     71  55  56 W17         N/A
$$

LMZ740>746-260500-
SOUTHERN LAKE MICHIGAN

STATION/POSITION SKY/WX   TEMP    WIND        PRES    VSBY  WAVE
                          AIR SEA DIR/SP/G                  HT/PER
                          (F)     (DEG/KT/KT) (MB)    (MI)  (FT/S)
SOUTHERN BUOY              71 72  270/ 21/ 25 1011.2R         2/ 4
WILMETTE HARBOR            67 65  310/ 14/ 21   N/A           3/ 3
HARRISON CRIB              77     270/ 25/ 27   N/A
BURNHAM HARBOR             70     270/ 15/ 20   N/A
CALUMET HARBOR             75     230/  7/ 11 1012.9R
BURNS HARBOR               74     210/ 15/ 19 1013.2F
MICHIGAN CITY              72     170/  9/ 12   N/A
MICHIGAN CITY 6N           71 68  250/ 10/ 14   N/A           1/ 3
ST. JOSEPH                 70 67  210/ 14/ 19 1012.5R         2/ 3
$$

ILZ025>027-034>036-040-047-049-050-058-095>099-260500-
WEST-CENTRAL ILLINOIS

CITY           SKY/WX    TMP DP  RH WIND       PRES   REMARKS
QUINCY         LGT RAIN  63  55  75 NW12      30.13R
GALESBURG*     CLOUDY    64  50  62 W14       30.08R
MACOMB*        CLOUDY    65  50  59 NW14G20   30.10S
JACKSONVILLE*  CLOUDY    67  54  62 NW10      30.08S
PITTSFIELD*    CLOUDY    67  55  64 W12G17    30.12R
$$

ILZ028>032-037-038-041>044-048-051>054-059>061-260500-
CENTRAL ILLINOIS

CITY           SKY/WX    TMP DP  RH WIND       PRES   REMARKS
PONTIAC        CLOUDY    68  57  68 W15       30.02R
BLOOMINGTON    PTCLDY    66  55  67 NW17      30.04R
DECATUR        PTCLDY    72  61  68 NW17G31   30.03R
PEORIA         CLOUDY    67  53  61 NW9G20    30.04S
LACON*         CLOUDY    66  51  57 NW12G18   30.03S
LINCOLN*       CLOUDY    68  55  64 NW9G17    30.05R
SPRINGFIELD    CLOUDY    69  55  60 NW10      30.06R
TAYLORVILLE    CLOUDY    70  60  70 NW13G24   30.04R
$$

ILZ033-039-045-046-055>057-062-063-260500-
EAST-CENTRAL ILLINOIS

CITY           SKY/WX    TMP DP  RH WIND       PRES   REMARKS
CHAMPAIGN      CLEAR     72  66  81 W7        30.00S
RANTOUL*       CLEAR     71  62  72 NW10G20   30.00R
MATTOON        MOCLDY    75  66  73 W10       30.00R
PARIS*         PTCLDY    75  69  80 W3        29.99S
$$

ILZ079-100>102-260500-
SOUTHWEST ILLINOIS

CITY           SKY/WX    TMP DP  RH WIND       PRES   REMARKS
ALTON          HVY RAIN  72  65  76 NW18G25   30.06R
BELLEVILLE     TSTM      73  70  88 NW8G33    30.04R FOG
CAHOKIA*       CLOUDY    72  68  87 W5        30.05R
SPARTA*        PTCLDY    73  70  91 NW6       30.04S
$$

ILZ064>066-069>071-074>076-080>082-084>086-088>090-092>094-260500-
SOUTH-CENTRAL ILLINOIS

CITY           SKY/WX    TMP DP  RH WIND       PRES   REMARKS
CARBONDALE     PTCLDY    71  70  96 CALM      30.02S
CAIRO*         PTCLDY    72  71  97 CALM      30.01F
EFFINGHAM*     PTCLDY    74  71  90 W5        30.03R
MARION         PTCLDY    73  72  94 CALM      30.02F
MT. VERNON     MOCLDY    72  64  78 CALM      30.02S
CENTRALIA*     PTCLDY    74  70  88 W7        30.01S
SALEM*         CLOUDY    75  69  81 W5        30.02R
METROPOLIS*    CLEAR     72  70  93 CALM      30.02S
$$

ILZ067-068-072-073-078-083-087-091-260500-
SOUTHEAST ILLINOIS

CITY           SKY/WX    TMP DP  RH WIND       PRES   REMARKS
LAWRENCEVILLE  CLOUDY    74  68  81 W3        30.00S
FLORA*         CLOUDY    76  70  82 W5        30.00F
FAIRFIELD*       N/A     72  70  93 CALM      30.00S
HARRISBURG*    CLEAR     73  71  95 CALM      30.02S
ROBINSON*      MOCLDY    72  69  90 CALM      30.00S
CARMI*         CLEAR     71  69  95 CALM      30.01S
$$

ABBREVIATIONS USED IN REMARKS
   TC - TEMPERATURE IN CELSIUS
  WCI - WIND CHILL INDEX
   HX - HEAT INDEX
  VSB - VISIBILITY
$$




USA.gov is the U.S. government's official web portal to all federal, state and local government web resources and services.